Regional Weather Roundup
Issued by NWS Portland, ME

Current Version | Previous Version | Text Only | Print | Product List | Glossary Off
Versions: 1 2 3 4 5 6 7 8 9 10 11 12 13 14 15 16 17 18 19 20 21 22 23 24 25 26 27 28 29 30 31 32 33 34 35 36 37 38 39 40 41 42 43 44 45 46 47 48 49 50
000 ASUS41 KGYX 191805 RWRGYX WEATHER ROUNDUP FOR MAINE AND NEW HAMPSHIRE NATIONAL WEATHER SERVICE GRAY ME 200 PM EDT SUN AUG 19 2018 MEZ002-005-006-010-012-015-018-020-021-024-026-027-029-191900- MAINE CITY SKY/WX TMP DP RH WIND PRES REMARKS PORTLAND FAIR 75 61 61 SE10 30.07S 6HR MIN TEMP: 66; 6HR MAX TEMP: 75; SANFORD FAIR 76 58 53 E10G20 30.06F BAR HARBOR PTSUNNY 74 59 59 E9 30.08R WISCASSET FAIR 78 53 41 E10G18 30.07S 6HR MIN TEMP: 65; 6HR MAX TEMP: 79; ROCKLAND FAIR 73 60 63 NE8 30.07S FRYEBURG FAIR 76 55 48 NE8 30.08F 6HR MIN TEMP: 61; 6HR MAX TEMP: 79; LEWISTONAUBURN N/A 75 58 55 NE8 30.08S AUGUSTA FAIR 76 55 48 N9 30.08F 6HR MIN TEMP: 64; 6HR MAX TEMP: 76; WATERVILLE FAIR 74 57 55 N9 30.06F BANGOR PTSUNNY 76 56 49 NE17 30.09S 6HR MIN TEMP: 63; 6HR MAX TEMP: 77; GREENVILLE NOT AVBL MILLINOCKET FAIR 74 52 46 NE8 30.12R 6HR MIN TEMP: 61; 6HR MAX TEMP: 76; HOULTON FAIR 73 55 53 E9 30.10S 6HR MIN TEMP: 57; 6HR MAX TEMP: 73; PRESQUE ISLE FAIR 73 54 51 E7 30.13S 6HR MIN TEMP: 56; 6HR MAX TEMP: 73; FRENCHVILLE CLOUDY 74 52 46 VRB3 30.14S 6HR MIN TEMP: 59; 6HR MAX TEMP: 74; CARIBOU FAIR 73 51 46 SE7 30.12S 6HR MIN TEMP: 58; 6HR MAX TEMP: 75; $$ NHZ002-005-008-009-011-012-014-191900- NEW HAMPSHIRE CITY SKY/WX TMP DP RH WIND PRES REMARKS PORTSMOUTH PTSUNNY 72 58 59 E12 30.05F ROCHESTER FAIR 76 60 57 E12 30.05F 6HR MIN TEMP: 65; 6HR MAX TEMP: 76; NASHUA FAIR 77 57 50 SE5 30.06R MANCHESTER PTSUNNY 77 54 44 E9G22 30.04S 6HR MIN TEMP: 66; 6HR MAX TEMP: 78; CONCORD FAIR 77 56 48 VRB7 30.05F 6HR MIN TEMP: 65; 6HR MAX TEMP: 79; LACONIA FAIR 75 56 51 NE12 30.06F PLYMOUTH FAIR 78 54 42 E8 30.05F BERLIN FAIR 77 53 43 VRB7 30.09F 6HR MIN TEMP: 55; 6HR MAX TEMP: 78; WHITEFIELD FAIR 79 54 41 VRB6 30.08F 6HR MIN TEMP: 54; 6HR MAX TEMP: 79; JAFFREY FAIR 75 54 47 VRB3 30.08S 6HR MIN TEMP: 64; 6HR MAX TEMP: 75; KEENE FAIR N/A N/A N/A NE7 30.05 LEBANON FAIR 78 55 44 VRB5 30.05F 6HR MIN TEMP: 63; 6HR MAX TEMP: 79; MT WASHINGTON NOT AVBL $$ VTZ005-007-008-191900- VERMONT CITY SKY/WX TMP DP RH WIND PRES REMARKS ST JOHNSBURY N/A 76 52 43 MISG 30.05F MONTPELIER FAIR 76 56 49 NW8 30.11F BURLINGTON FAIR 81 57 43 N3 30.05F $$ MAZ007-012-024-CTZ003-RIZ002-NYZ038-NYZ072-191900- SOUTHERN NEW ENGLAND AND NY CITY SKY/WX TMP DP RH WIND PRES REMARKS BOSTON PTSUNNY 71 60 68 E21 30.05R WORCESTER FAIR 71 55 56 NE16 30.06R NANTUCKET CLOUDY 71 63 75 NE21G28 29.97S PROVIDENCE FAIR 74 59 59 NE16 30.02R HARTFORD PTSUNNY 79 58 48 NE9 30.02R ALBANY PTSUNNY 80 55 42 E7 30.03F NEW YORK CITY LGT RAIN 72 63 73 E14 29.99S $$ ANZ081-ANZ082-ANZ150-NHZ014-MEZ023>029-191900- COASTAL MARINE OBSERVATIONS STATION/POSITION TIME TEMP WIND PRES WAVE AIR SEA DIR/SP/G HT/PER (UTC) (F) (DEG/KT/KT) (MB) (FT/S) MOUNT DESERT ROC 1700 60 10/ 17/ 18 1017.8R MATINICUS ROCK 1700 65 20/ 9/ 10 1017.8R ISLE OF SHOALS 1700 65 40/ 16/ 19 1017.4F JEFFREYS LEDGE 1736 66 N/A 5/ 6 $$ .............KEY.............. WCI - WIND CHILL TC - TEMPERATURE IN CELSIUS VSB - VISIBILITY IN MILES HX - HEAT INDEX FAIR- INDICATES FEW OR NO CLOUDS BELOW 12,000 FT, WITH NO SIGNIFICANT WEATHER AND/OR OBSTRUCTIONS TO VISIBILITY.

USA.gov is the U.S. government's official web portal to all federal, state and local government web resources and services.